COSMOS 530

导读 | 星芒AI

COSMOS 530 是苏联于1972年发射的一颗电子侦察卫星,主要用于监听和收集外国的无线电通信和雷达信号。该卫星属于“宇宙”系列,是苏联情报收集系统的重要组成部分。COSMOS 530 在轨道上运行了一段时间后失联,最终再入大气层烧毁。这类卫星在冷战期间对苏联获取战略情报起到了关键作用。

基本信息
目录编号:
6265
目录名称:
COSMOS 530
国际标识:
1972-087C
轨道中心:
EARTH
卫星名称:
COSMOS 530
卫星全名:
--
卫星状态:
在轨 (已飞行19357 天)
发射日期:
1972-11-01 UTC
国别 :
俄罗斯(独联体) (CIS)
星等 :
--
轨道信息
数据来源 国际轨道数据 AOE轨道数据
星历时间 2025-10-31T14:40:26+0800
7小时前
查看轨道信息
2025-10-30T16:00:00+0800
1天前
查看轨道信息
半长轴 7777.758km 7777.758km
偏心率 0.0086654 0.0086686
轨道倾角 74.034° 74.034°
近地点辐角 14.564° 16.064°
升交点赤经 252.705° 253.998°
平近点角 93.146° 108.430°
近地点 1332.225km 1332.2km
远地点 1467.021km 1467.046km
周期 113.774分钟 113.774分钟
每日圈数 12.656719 12.65672
详细信息
使用方式:
暂无
2D轨道图
3D轨道图
轨道高度分析图
轨道倾角分析图
轨道综合分析图
查看轨道综合分析图